Flag for Portugal Weather past 2 weeks in Portimão, Portugal

Now
64 °F

Clear.


Feels Like: 64 °F
Forecast: 62 / 78 °F
Wind: 2 mph from North

Location: Faro / Aeroporto

Current Time: Sep 24, 2014 at 5:59:20 AM

Latest Report: Sep 24, 2014 at 5:00 AM


Visibility: 10 mi

Pressure: 29.95 "Hg

Humidity: 88%

Dew point: 61 °F

Location of PortimãoLocation

Historic Weather in Portimão — Graph

°F

Portimão temperature yesterday

Maximum temperature yesterday: 77 °F (at 3:00 PM)
Minimum temperature yesterday: 63 °F (at 3:30 AM)
Average temperature yesterday: 69 °F

Past Weeks' High & Low Weather Summary

 TemperatureHumidityPressure
High77 °F (Sep 9, 2:00 PM)100% (Sep 11, 1:30 AM)30.07 "Hg (Sep 11, 1:30 AM)
Low63 °F (Sep 22, 4:00 AM)61% (Sep 21, 11:30 AM)29.71 "Hg (Sep 16, 4:30 AM)
Average71 °F87%29.94 "Hg
* Reported Sep 9 5:00 AM — Sep 24 5:00 AM, Portimão, Weather by CustomWeather, © 2014

Note: Actual official high and low records may vary slightly from our data, if they occured in-between our weather recording intervals... More about our weather records

Advertising

Portimão weather history for previous 24 hours

 ConditionsComfort  
Time TempWeatherWind HumidityBarometerVisibility
5:00 AM
Sep 24
64 °FClear.2 mph88%29.95 "Hg10 mi
4:30 AM64 °FClear.6 mph94%29.95 "Hg10 mi
4:00 AM64 °FClear.6 mph94%29.95 "Hg10 mi
3:30 AM64 °FClear.7 mph94%29.95 "Hg10 mi
3:00 AM64 °FClear.3 mph94%29.95 "Hg10 mi
2:30 AM64 °FClear.2 mph94%29.95 "Hg10 mi
2:00 AM66 °FPassing clouds.5 mph94%29.95 "HgN/A
1:30 AM66 °FPassing clouds.3 mph94%29.95 "HgN/A
1:00 AM66 °FPassing clouds.5 mph94%29.95 "HgN/A
12:30 AM68 °FPassing clouds.6 mph94%29.98 "HgN/A
12:00 AM68 °FPassing clouds.6 mph94%29.98 "HgN/A
11:30 PM
Sep 23
68 °FPassing clouds.7 mph94%29.98 "HgN/A
11:00 PM68 °FPassing clouds.7 mph94%29.98 "HgN/A
10:30 PM68 °FPassing clouds.7 mph94%29.98 "HgN/A
10:00 PM70 °FPassing clouds.7 mph88%29.98 "HgN/A
9:30 PM70 °FPassing clouds.8 mph88%29.95 "HgN/A
9:00 PM70 °FPassing clouds.8 mph88%29.95 "HgN/A
8:30 PM70 °FPassing clouds.9 mph88%29.95 "HgN/A
8:00 PM70 °FPassing clouds.9 mph88%29.95 "HgN/A
7:30 PM70 °FPassing clouds.9 mph88%29.95 "HgN/A
7:00 PM72 °FPassing clouds.10 mph83%29.92 "HgN/A
6:30 PM72 °FPassing clouds.12 mph83%29.92 "HgN/A
6:00 PM73 °FPassing clouds.10 mph78%29.92 "HgN/A
5:30 PM73 °FPassing clouds.10 mph78%29.92 "HgN/A
5:00 PM73 °FPassing clouds.10 mph78%29.92 "HgN/A
4:30 PM77 °FPassing clouds.12 mph69%29.92 "HgN/A
4:00 PM77 °FPassing clouds.12 mph69%29.95 "HgN/A
3:30 PM77 °FPassing clouds.12 mph69%29.95 "HgN/A
3:00 PM77 °FPassing clouds.10 mph65%29.95 "HgN/A
2:30 PM75 °FPassing clouds.12 mph69%29.95 "HgN/A
2:00 PM75 °FPassing clouds.10 mph69%29.98 "HgN/A
1:30 PM75 °FPassing clouds.10 mph69%29.98 "HgN/A
1:00 PM75 °FPassing clouds.8 mph69%29.98 "HgN/A
12:30 PM75 °FPassing clouds.8 mph69%29.98 "HgN/A
12:00 PM72 °FPassing clouds.7 mph73%29.98 "HgN/A
11:00 AM72 °FPassing clouds.6 mph73%29.98 "HgN/A
10:30 AM70 °FPassing clouds.5 mph78%29.98 "HgN/A
10:00 AM70 °FScattered clouds.2 mph83%29.98 "HgN/A
9:30 AM70 °FPassing clouds.2 mph88%29.98 "HgN/A
9:00 AM68 °FPassing clouds.2 mph88%29.98 "HgN/A
8:30 AM64 °FPassing clouds.5 mph94%29.98 "HgN/A
8:00 AM63 °FPassing clouds.No wind94%29.95 "HgN/A
7:30 AM63 °FPassing clouds.3 mph94%29.95 "HgN/A
7:00 AM63 °FPassing clouds.2 mph94%29.95 "HgN/A
6:30 AM64 °FPassing clouds.2 mph88%29.95 "HgN/A
6:00 AM64 °FPassing clouds.3 mph88%29.95 "HgN/A
5:30 AM64 °FPassing clouds.5 mph94%29.95 "HgN/A
5:00 AM64 °FClear.5 mph94%29.95 "Hg10 mi
Weather by CustomWeather, © 2014

See weather overviewHow to use our weather pages